Weather History for Great Falls, MT

Change the Weather History Date:

Friday, January 25, 2013

  Actual Average Record
Temperature  
Mean Temperature 46 °F 26 °F  
Max Temperature 50 °F 36 °F 62 °F (2006)
Min Temperature 41 °F 16 °F -31 °F (1957)
Degree Days  
Heating Degree Days 19 39  
Month to date heating degree days 873 999  
Since 1 July heating degree days 3696 4216  
Cooling Degree Days 0 0  
Month to date cooling degree days 0 0  
Year to date cooling degree days 0 0  
Moisture  
Dew Point 27 °F    
Average Humidity 50    
Maximum Humidity 58    
Minimum Humidity 42    
Precipitation  
Precipitation 0.00 in 0.01 in 0.56 in (1916)
Month to date precipitation 0.49 0.41  
Year to date precipitation 0.49 0.41  
Snow  
Snow 0.00 in 0.30 in 7.00 in (1916)
Month to date snowfall 8.2 7.0  
Since 1 July snowfall 40.5 30.2  
Snow Depth T in    
Sea Level Pressure  
Sea Level Pressure 29.97 in    
Wind  
Wind Speed 18 mph (SSW)    
Max Wind Speed 25 mph    
Max Gust Speed 31 mph    
Visibility 10 miles    
Events      
T = Trace of Precipitation, MM = Missing Value Source: NWS Daily Summary

Daily Weather History Graph

Daily Weather History Graph

Search for Another Location

Airport:

Trip Planner

Search our weather history database for the weather conditions in past years. The results will help you decide how hot, cold, wet, or windy it might be!

Date:

Astronomy

Jan. 25, 2013 Rise Set
Actual Time 7:59 AM MST 5:16 PM MST
Civil Twilight 7:26 AM MST 5:50 PM MST
Nautical Twilight 6:48 AM MST 6:27 PM MST
Astronomical Twilight 6:12 AM MST 7:04 PM MST
Moon 4:17 PM MST (1/25) 6:42 AM MST (1/25)
Length of Visible Light 10h 24m
Length of Day
9h 17m
Waxing Gibbous, 98% of the Moon is Illuminated
Jan 25
Waxing Gibbous
Jan 26
Full
Feb 3
Last Quarter
Feb 10
New
Feb 17
First Quarter

Hourly Weather History & Observations

Time (MST) Temp. Windchill Dew Point Humidity Pressure Visibility Wind Dir Wind Speed Gust Speed Precip Events Conditions
12:53 AM 41.0 °F 31.9 °F 24.1 °F 51% 30.04 in - SW 19.6 mph - N/A   Scattered Clouds
1:53 AM 41.0 °F 33.1 °F 24.1 °F 51% 30.05 in 10.0 mi SW 15.0 mph 24.2 mph N/A   Clear
2:53 AM 41.0 °F 31.9 °F 24.1 °F 51% 30.04 in 10.0 mi SW 19.6 mph 25.3 mph N/A   Partly Cloudy
3:53 AM 41.0 °F 31.9 °F 25.0 °F 53% 30.02 in 10.0 mi SW 19.6 mph 26.5 mph N/A   Clear
4:53 AM 42.1 °F 33.3 °F 24.1 °F 49% 30.04 in 10.0 mi SSW 19.6 mph 28.8 mph N/A   Clear
5:53 AM 43.0 °F 34.0 °F 24.1 °F 47% 30.04 in 10.0 mi SSW 21.9 mph 29.9 mph N/A   Clear
6:53 AM 43.0 °F 34.2 °F 25.0 °F 49% 30.04 in 10.0 mi SSW 20.7 mph 26.5 mph N/A   Clear
7:53 AM 44.1 °F 36.2 °F 25.0 °F 47% 30.05 in - SSW 18.4 mph 25.3 mph N/A   Clear
8:53 AM 44.1 °F 35.9 °F 26.1 °F 49% 30.04 in 10.0 mi SSW 19.6 mph - N/A   Clear
9:53 AM 45.0 °F 37.1 °F 26.1 °F 48% 30.03 in 10.0 mi SSW 19.6 mph 27.6 mph N/A   Clear
10:53 AM 46.9 °F - 27.0 °F 46% 30.02 in 10.0 mi SSW 13.8 mph - N/A   Clear
11:53 AM 48.9 °F - 27.0 °F 43% 29.99 in 10.0 mi SSW 21.9 mph 31.1 mph N/A   Clear
12:53 PM 48.0 °F - 28.0 °F 46% 29.96 in 10.0 mi SW 19.6 mph - N/A   Clear
1:53 PM 48.9 °F - 28.0 °F 44% 29.95 in 10.0 mi SW 17.3 mph 24.2 mph N/A   Clear
2:53 PM 48.9 °F - 28.9 °F 46% 29.95 in 10.0 mi SSW 15.0 mph 20.7 mph N/A   Clear
3:53 PM 48.0 °F - 28.0 °F 46% 29.93 in 10.0 mi SSW 11.5 mph - N/A   Clear
4:53 PM 46.9 °F - 28.9 °F 50% 29.92 in 10.0 mi SW 13.8 mph - N/A   Clear
5:53 PM 46.9 °F - 28.9 °F 50% 29.91 in 10.0 mi SW 18.4 mph - N/A   Clear
6:53 PM 46.9 °F - 30.0 °F 52% 29.90 in 10.0 mi SW 21.9 mph - N/A   Mostly Cloudy
7:53 PM 46.0 °F 38.8 °F 28.9 °F 51% 29.89 in 10.0 mi SW 18.4 mph 25.3 mph N/A   Partly Cloudy
8:53 PM 45.0 °F 38.9 °F 28.9 °F 53% 29.88 in 10.0 mi South 12.7 mph - N/A   Clear
9:53 PM 45.0 °F 38.5 °F 28.9 °F 53% 29.88 in 10.0 mi SW 13.8 mph - N/A   Partly Cloudy
10:53 PM 44.1 °F 37.1 °F 30.0 °F 58% 29.88 in 10.0 mi SW 15.0 mph - N/A   Mostly Cloudy
11:53 PM 44.1 °F 37.1 °F 30.0 °F 58% 29.86 in 10.0 mi South 15.0 mph - N/A   Overcast